San Jose, Costa Rica

9:07 AM CST on September 27, 2016 (GMT -0600)
San Jose

Weather History for 78762 - October, 2012

Change the Weather History Date:

Tuesday, October 23, 2012

  Actual Average Record
Temperature  
Mean Temperature 73 °F -  
Max Temperature 80 °F - - ()
Min Temperature 66 °F - - ()
Cooling Degree Days 8    
Growing Degree Days 23 (Base 50)    
Moisture  
Dew Point 66 °F    
Average Humidity 87    
Maximum Humidity 94    
Minimum Humidity 62    
Precipitation  
Precipitation 1.34 in - - ()
Sea Level Pressure  
Sea Level Pressure 29.85 in    
Wind  
Wind Speed 3 mph ()    
Max Wind Speed 10 mph    
Max Gust Speed -    
Visibility 5.9 miles    
Events Fog , Rain , Thunderstorm    
T = Trace of Precipitation, MM = Missing Value Source: Averaged Metar Reports

Daily Weather History Graph

Daily Weather History Graph

Search for Another Location

Airport or City:

Trip Planner

Search our weather history database for the weather conditions in past years. The results will help you decide how hot, cold, wet, or windy it might be!

Date:

Astronomy

Oct. 23, 2012 Rise Set
Actual Time 5:25 AM CST 5:16 PM CST
Civil Twilight 5:04 AM CST 5:37 PM CST
Nautical Twilight 4:39 AM CST 6:02 PM CST
Astronomical Twilight 4:15 AM CST 6:26 PM CST
Moon 1:01 PM CST (10/23) 12:20 AM CST (10/23)
Length of Visible Light 12h 32m
Length of Day
11h 50m
Waxing Gibbous, 67% of the Moon is Illuminated
Oct 23
Waxing Gibbous
Oct 29
Full
Nov 6
Last Quarter
Nov 13
New
Nov 20
First Quarter

Hourly Weather History & Observations

Time (CST) Temp. Dew Point Humidity Pressure Visibility Wind Dir Wind Speed Gust Speed Precip Events Conditions
12:00 AM 67 °F 66 °F 94% 29.74 in 9 mi SE 2.3 mph - - Fog Patches of Fog
12:00 AM 68.0 °F 66.2 °F 94% 29.90 in 6.2 mi SE 2.3 mph - N/A Fog Patches of Fog
1:00 AM 68.0 °F 66.2 °F 94% 29.87 in 6.2 mi ESE 3.5 mph - N/A Fog Patches of Fog
2:00 AM 68.0 °F 66.2 °F 94% 29.86 in 6.2 mi East 2.3 mph - N/A Fog Patches of Fog
3:00 AM 67 °F 65 °F 89% 29.75 in 12 mi East 3.5 mph - -   Scattered Clouds
3:00 AM 68.0 °F 64.4 °F 88% 29.86 in 6.2 mi East 3.5 mph - N/A   Mostly Cloudy
4:00 AM 68.0 °F 64.4 °F 88% 29.86 in 6.2 mi ENE 4.6 mph - N/A   Mostly Cloudy
5:00 AM 66.2 °F 64.4 °F 94% 29.87 in 6.2 mi ESE 3.5 mph - N/A   Mostly Cloudy
6:00 AM 67 °F 64 °F 86% 29.77 in 12 mi East 3.5 mph - -   Overcast
6:00 AM 66.2 °F 64.4 °F 94% 29.88 in - East 3.5 mph - N/A   Clear
7:00 AM 71.6 °F 64.4 °F 78% 29.89 in 6.2 mi ENE 3.5 mph - N/A   Mostly Cloudy
7:30 AM 77.0 °F 64.4 °F 65% 29.90 in 6.2 mi WNW 2.3 mph - N/A   Mostly Cloudy
8:00 AM 75.2 °F 68.0 °F 78% 29.91 in 6.2 mi WSW 3.5 mph - N/A   Mostly Cloudy
9:00 AM 73 °F 66 °F 74% 29.77 in 5 mi WSW 5.8 mph - -   Haze
9:00 AM 73.4 °F 66.2 °F 78% 29.92 in 5.0 mi WSW 5.8 mph - N/A   Scattered Clouds
10:00 AM 75.2 °F 68.0 °F 78% 29.91 in 5.0 mi WSW 8.1 mph - N/A   Mostly Cloudy
11:00 AM 77.0 °F 68.0 °F 74% 29.89 in 6.2 mi WSW 8.1 mph - N/A   Scattered Clouds
12:00 PM 79 °F 68 °F 62% 29.72 in 12 mi SW 9.2 mph - -   Overcast
12:00 PM 78.8 °F 68.0 °F 69% 29.85 in 6.2 mi SW 9.2 mph - N/A   Mostly Cloudy
1:00 PM 78.8 °F 69.8 °F 74% 29.82 in 6.2 mi SW 10.4 mph - N/A Rain , Thunderstorm Thunderstorms and Rain
2:00 PM 69.8 °F 66.2 °F 88% 29.82 in 3.1 mi East 6.9 mph - N/A Rain , Thunderstorm Thunderstorms and Rain
2:33 PM 66.2 °F 64.4 °F 94% 29.83 in 1.2 mi WNW 3.5 mph - N/A   Mostly Cloudy
3:00 PM 68 °F 66 °F 90% 29.56 in 1 mi South 6.9 mph - - Fog Heavy Fog
3:00 PM 68.0 °F 66.2 °F 94% 29.84 in 1.2 mi South 6.9 mph - N/A   Mostly Cloudy
3:16 PM 68.0 °F 64.4 °F 88% 29.85 in 2.5 mi ENE 2.3 mph - N/A   Mostly Cloudy
3:43 PM 68.0 °F 66.2 °F 94% 29.86 in 5.0 mi Calm Calm - N/A Fog Fog
4:00 PM 68.0 °F 66.2 °F 94% 29.86 in 5.0 mi SW 3.5 mph - N/A Fog Fog
5:00 PM 69.8 °F 68.0 °F 94% 29.87 in 6.2 mi ENE 3.5 mph - N/A Fog Mostly Cloudy
6:00 PM 69 °F 67 °F 92% 29.76 in 9 mi WNW 3.5 mph - - Rain Light Rain
6:00 PM 69.8 °F 68.0 °F 94% 29.89 in 6.2 mi WNW 3.5 mph - N/A Fog , Rain Light Rain
7:00 PM 69.8 °F 68.0 °F 94% 29.91 in 6.2 mi Calm Calm - N/A   Mostly Cloudy
8:00 PM 69.8 °F 68.0 °F 94% 29.93 in 6.2 mi SW 2.3 mph - N/A   Mostly Cloudy
9:00 PM 69 °F 67 °F 92% 29.79 in 2 mi West 1.2 mph - - Fog Patches of Fog
9:00 PM 69.8 °F 68.0 °F 94% 29.95 in 6.2 mi West 1.2 mph - N/A Fog Patches of Fog
10:00 PM 69.8 °F 68.0 °F 94% 29.95 in 6.2 mi WNW 1.2 mph - N/A Fog Patches of Fog
11:00 PM 69.8 °F 68.0 °F 94% 29.94 in 5.6 mi Calm Calm - N/A Fog Patches of Fog